This demonstration page uses our WeatherBlox Daily Observations layout. Learn more.

Left ArrowRight Arrow

Hourly Observations for April 26, 2022

Temp ( °F °C ) Dew Point ( °F °C ) Humidity (%) Winds ( mph kmh ) Pressure ( in mb ) Visibility ( mi km ) Precip ( " mm )
12:52 am 00:52 Clear 44 6.7 37 2.8 76 76 NNW 3 6 30.33 1027 10 16 0.00 0.00
1:52 am 01:52 Clear 43 6.1 36 2.2 76 76 NNW 5 7 30.34 1027 10 16 0.00 0.00
2:52 am 02:52 Clear 43 6.1 35 1.7 74 74 N 6 9 30.34 1027 10 16 0.00 0.00
3:52 am 03:52 Clear 41 5 34 1.1 76 76 NNE 5 7 30.35 1028 10 16 0.00 0.00
4:52 am 04:52 Clear 40 4.4 33 0.6 77 77 N 3 6 30.37 1028 10 16 0.00 0.00
5:52 am 05:52 Clear 39 3.9 32 0 76 76 N 5 7 30.38 1029 10 16 0.00 0.00
6:52 am 06:52 Sunny 39 3.9 33 0.6 79 79 Calm 30.40 1029 10 16 0.00 0.00
7:52 am 07:52 Sunny 44 6.7 35 1.7 71 71 E 3 6 30.42 1030 10 16 0.00 0.00
8:52 am 08:52 Sunny 48 8.9 29 -1.7 48 48 E 8 13 30.43 1031 10 16 0.00 0.00
9:52 am 09:52 Sunny 50 10 26 -3.3 39 39 ENE 7 11 30.44 1031 10 16 0.00 0.00
10:52 am 10:52 Sunny 53 11.7 27 -2.8 37 37 Calm 30.45 1031 10 16 0.00 0.00
11:52 am 11:52 Sunny 55 12.8 28 -2.2 35 35 Calm 30.43 1031 10 16 0.00 0.00
12:52 pm 12:52 Sunny 58 14.4 27 -2.8 31 31 NE 5 7 30.40 1029 10 16 0.00 0.00
1:52 pm 13:52 Sunny 60 15.6 28 -2.2 30 30 W 6 9 30.38 1029 10 16 0.00 0.00
2:52 pm 14:52 Sunny 60 15.6 28 -2.2 30 30 Calm 30.36 1028 10 16 0.00 0.00
3:52 pm 15:52 Sunny 63 17.2 30 -1.1 29 29 NE 6 9 30.33 1027 10 16 0.00 0.00
4:52 pm 16:52 Sunny 64 17.8 31 -0.6 29 29 undefined N/A 30.31 1027 10 16 0.00 0.00
5:52 pm 17:52 Sunny 63 17.2 29 -1.7 28 28 E 6 9 30.30 1026 10 16 0.00 0.00
6:52 pm 18:52 Sunny 62 16.7 28 -2.2 28 28 Calm 30.29 1026 10 16 0.00 0.00
7:52 pm 19:52 Sunny 60 15.6 31 -0.6 33 33 Calm 30.28 1025 10 16 0.00 0.00
8:52 pm 20:52 Clear 53 11.7 36 2.2 52 52 SE 3 6 30.29 1026 10 16 0.00 0.00
9:52 pm 21:52 Clear 52 11.1 33 0.6 49 49 SE 5 7 30.29 1026 10 16 0.00 0.00
10:52 pm 22:52 Clear 50 10 33 0.6 52 52 SE 5 7 30.29 1026 10 16 0.00 0.00
11:52 pm 23:52 Clear 46 7.8 34 1.1 63 63 SE 10 17 30.26 1025 10 16 0.00 0.00

Powered by AerisWeather